[[{"header":{"parameterUnit":"m.s-1","parameterCategory":1,"la1":30.2992,"la2":30.254,"lo1":-89.0895,"lo2":-89.0443,"dy":0.0025,"dx":0.0025,"nx":19,"ny":19,"refTime":"2026-05-18T09:00:00:Z","depth":0,"parameterNumber":2,"parameterNumberName":"U-component_of_WINDS"},"data":[0,0,0,-2.8359,-2.836,-2.838,-2.838,-2.8427,-2.8427,0,0,0,0,0,0,0,0,0,0,0,-2.8366,-2.8366,-2.8359,-2.836,-2.838,-2.838,-2.8427,-2.8427,0,0,0,0,0,0,0,0,0,0,0,-2.8365,-2.8366,-2.8367,-2.836,-2.838,-2.838,-2.8426,-2.8404,0,0,0,0,0,0,0,0,0,0,-2.8381,-2.8399,-2.8366,-2.8367,-2.836,-2.838,-2.838,-2.8403,-2.8405,-2.8427,0,-2.8448,0,-2.8439,-2.8432,-2.8432,0,0,0,-2.8351,-2.8397,-2.8391,-2.8367,-2.8361,-2.838,-2.8368,-2.8404,-2.8407,-2.8431,-2.8449,-2.845,-2.844,-2.8432,-2.8433,-2.8584,-2.8585,0,0,-2.835,-2.8376,-2.8389,-2.8394,-2.8391,-2.8368,-2.8369,-2.8406,-2.8427,-2.8449,-2.8451,-2.844,-2.8433,-2.8433,-2.8583,-2.8585,0,0,0,-2.8353,-2.8376,-2.8368,-2.8392,-2.8394,-2.8369,-2.837,-2.8426,-2.8421,-2.8451,-2.8441,-2.8433,-2.8434,-2.8582,-2.8584,-2.8664,0,0,0,-2.8352,-2.8377,-2.8368,-2.8385,-2.8394,-2.841,-2.839,-2.8419,-2.8422,-2.8441,-2.8433,-2.8434,-2.8581,-2.8583,-2.8659,-2.8698,0,0,0,-2.836,-2.8378,-2.8385,-2.8386,-2.8395,-2.8409,-2.8406,-2.8419,-2.8416,-2.8432,-2.8435,-2.858,-2.8582,-2.8655,-2.869,-2.8745,0,0,0,-2.8377,-2.8456,-2.8387,-2.8472,-2.8395,-2.8458,-2.8405,-2.8451,-2.8474,-2.8433,-2.8581,-2.8584,-2.8653,-2.8686,-2.874,-2.8795,-2.882,0,0,-2.8492,-2.8471,-2.8519,-2.8458,-2.8539,-2.8453,-2.8547,-2.8544,-2.8523,-2.8565,-2.8569,-2.8661,-2.869,-2.8744,-2.8954,-2.8975,0,0,0,-2.8564,-2.8599,-2.8615,-2.8639,-2.8638,-2.8641,-2.8621,-2.8621,-2.8655,-2.855,-2.8695,-2.8711,-2.8742,-2.8767,-2.8784,-2.8809,-2.8596,-2.8596,-2.8596,-2.8763,-2.8731,-2.8809,-2.878,-2.8803,-2.8782,-2.8798,-2.8794,-2.8755,-2.879,-2.8802,-2.8933,-2.8964,-2.8976,-2.9002,-2.8829,-2.8829,-2.8829,-2.883,-2.8928,-2.8972,-2.8919,-2.8975,-2.8941,-2.8988,-2.8972,-2.8943,-2.8982,-2.8921,-2.8947,-2.8882,-2.9,-2.9021,-2.8835,-2.8834,-2.8834,-2.8833,-2.8833,-2.9054,-2.907,-2.9067,-2.9098,-2.9126,-2.9094,-2.9135,-2.9103,-2.9073,-2.9098,-2.9107,-2.9106,-2.91,-2.9105,-2.9106,-2.9106,-2.9106,-2.9107,-2.9107,-2.9185,-2.918,-2.9218,-2.9225,-2.9236,-2.9247,-2.9228,-2.9239,-2.9242,-2.9216,-2.9215,-2.9173,-2.9017,-2.8978,-2.9114,-2.9113,-2.9112,-2.9111,-2.9111,-2.9363,-2.9318,-2.9376,-2.9387,-2.9394,-2.9424,-2.9383,-2.9407,-2.9411,-2.9433,-2.9385,-2.9275,-2.9252,-2.9238,-2.9205,-2.9392,-2.9392,-2.9392,-2.9392,-2.9469,-2.9454,-2.9506,-2.9527,-2.9543,-2.9512,-2.958,-2.9567,-2.9546,-2.9547,-2.9516,-2.9471,-2.9458,-2.9442,-2.9424,-2.9393,-2.9623,-2.9623,-2.9623,-2.9576,-2.9562,-2.9625,-2.9603,-2.9606,-2.961,-2.9673,-2.9699,-2.9667,-2.9632,-2.9547,-2.9538,-2.9464,-2.9441,-2.9403,-2.9375,-2.9318,0,0]},{"header":{"parameterUnit":"m.s-1","parameterCategory":1,"la1":30.2992,"la2":30.254,"lo1":-89.0895,"lo2":-89.0443,"dy":0.0025,"dx":0.0025,"nx":19,"ny":19,"refTime":"2026-05-18T09:00:00:Z","depth":0,"parameterNumber":3,"parameterNumberName":"V-component_of_WINDS"},"data":[0,0,0,2.1182,2.1183,2.1228,2.1228,2.1274,2.1274,0,0,0,0,0,0,0,0,0,0,0,2.1163,2.1163,2.1182,2.1183,2.1228,2.1228,2.1274,2.1274,0,0,0,0,0,0,0,0,0,0,0,2.1163,2.1163,2.1163,2.1183,2.1228,2.1228,2.1274,2.1243,0,0,0,0,0,0,0,0,0,0,2.1201,2.1179,2.1163,2.1163,2.1183,2.1228,2.1228,2.1242,2.1245,2.1249,0,2.1252,0,2.1264,2.1277,2.1277,0,0,0,2.1186,2.1176,2.1194,2.1163,2.1183,2.1228,2.1209,2.1244,2.1248,2.1253,2.1253,2.1255,2.1265,2.1277,2.1277,2.129,2.129,0,0,2.1184,2.1167,2.1191,2.1196,2.119,2.1207,2.121,2.1246,2.1244,2.1253,2.1256,2.1265,2.1277,2.1277,2.129,2.129,0,0,0,2.1174,2.1165,2.1182,2.1194,2.1203,2.1208,2.1212,2.1243,2.125,2.1256,2.1266,2.1277,2.1278,2.129,2.129,2.127,0,0,0,2.1173,2.116,2.1181,2.1171,2.1202,2.1224,2.1207,2.1247,2.1252,2.1266,2.1277,2.1278,2.129,2.129,2.1271,2.1263,0,0,0,2.1161,2.1159,2.1164,2.117,2.119,2.1224,2.1233,2.1249,2.1257,2.1277,2.1278,2.129,2.129,2.1272,2.1265,2.1263,0,0,0,2.1144,2.1144,2.1163,2.1166,2.1189,2.1212,2.1233,2.125,2.1264,2.1278,2.129,2.129,2.1272,2.1266,2.1263,2.1259,2.1255,0,0,2.1134,2.1142,2.1145,2.1164,2.1179,2.1206,2.1218,2.1245,2.126,2.1279,2.1279,2.1271,2.1265,2.1263,2.124,2.1238,0,0,0,2.1136,2.1138,2.1146,2.116,2.1183,2.1201,2.1228,2.1238,2.1256,2.1267,2.127,2.1267,2.1266,2.1265,2.1262,2.1263,2.1289,2.1289,2.1289,2.1098,2.112,2.1127,2.1155,2.1168,2.1197,2.1209,2.1228,2.1244,2.1244,2.125,2.1234,2.1232,2.123,2.123,2.1249,2.1249,2.1249,2.1249,2.1086,2.1093,2.1117,2.1132,2.1155,2.1167,2.1195,2.1206,2.122,2.1231,2.1232,2.1243,2.1226,2.1228,2.1247,2.1248,2.1248,2.1248,2.1248,2.1064,2.1071,2.1085,2.1109,2.1124,2.1151,2.1164,2.1183,2.1201,2.1201,2.121,2.121,2.1213,2.1204,2.1204,2.1204,2.1204,2.1204,2.1204,2.1036,2.1052,2.1062,2.1087,2.1099,2.1117,2.1147,2.1158,2.1176,2.1189,2.1189,2.1205,2.1221,2.1224,2.1203,2.1203,2.1203,2.1203,2.1203,2.1016,2.1024,2.1039,2.1051,2.1082,2.1096,2.1121,2.1143,2.1155,2.1161,2.1177,2.1186,2.1194,2.1196,2.1199,2.1173,2.1173,2.1173,2.1173,2.0998,2.1004,2.1025,2.1043,2.1064,2.1088,2.1103,2.1125,2.115,2.1158,2.1165,2.117,2.1172,2.1179,2.1182,2.1185,2.1156,2.1156,2.1156,2.0987,2.0997,2.1007,2.1033,2.1059,2.108,2.1094,2.1113,2.1141,2.1155,2.1165,2.1166,2.1176,2.1178,2.1192,2.1195,2.1201,0,0]}]]